| time (UTC) | temp C | wind direction | speed KPH | gust KPH | rain 1hr cm | rain 24hr cm | rain mn cm | humidity % | barometer mb |
| 20260508114503 | 0 | 211 | 1.6 | 8.0 | 0.03 | 0.36 | 0.13 | 94 | 1006.5 |
| 20260508113004 | 0 | 188 | 0.0 | 8.0 | 0.03 | 0.36 | 0.13 | 94 | 1006.5 |
| 20260508111503 | 0 | 209 | 6.4 | 11.3 | 0.08 | 0.36 | 0.13 | 93 | 1006.4 |
| 20260508104558 | 0 | 161 | 0.0 | 3.2 | 0.08 | 0.33 | 0.10 | 92 | 1006.6 |
| 20260508103102 | 1 | 313 | 0.0 | 4.8 | 0.08 | 0.33 | 0.10 | 92 | 1006.6 |
| 20260508101615 | 1 | 313 | 1.6 | 9.7 | 0.03 | 0.28 | 0.05 | 93 | 1006.8 |
| 20260508100055 | 0 | 309 | 11.3 | 19.3 | 0.00 | 0.25 | 0.03 | 94 | 1006.8 |
| 20260508094551 | 0 | 360 | 6.4 | 17.7 | 0.00 | 0.25 | 0.03 | 93 | 1006.8 |
| 20260508093035 | 1 | 265 | 4.8 | 6.4 | 0.00 | 0.25 | 0.03 | 93 | 1006.2 |
| 20260508091529 | 0 | 198 | 0.0 | 6.4 | 0.00 | 0.25 | 0.03 | 93 | 1005.7 |
| 20260508090029 | 1 | 198 | 0.0 | 8.0 | 0.00 | 0.25 | 0.03 | 93 | 1005.6 |
| 20260508084526 | 1 | 198 | 4.8 | 11.3 | 0.03 | 0.25 | 0.03 | 92 | 1005.6 |
| 20260508083025 | 1 | 190 | 8.0 | 12.9 | 0.03 | 0.25 | 0.03 | 91 | 1005.8 |
| 20260508081524 | 1 | 197 | 8.0 | 12.9 | 0.03 | 0.25 | 0.03 | 90 | 1005.9 |
| 20260508080023 | 2 | 213 | 4.8 | 9.7 | 0.03 | 0.25 | 0.03 | 88 | 1006.1 |
| 20260508074527 | 2 | 140 | 3.2 | 22.5 | 0.00 | 0.23 | 0.00 | 88 | 1006.1 |
| 20260508073020 | 1 | 284 | 8.0 | 14.5 | 0.00 | 0.23 | 0.00 | 92 | 1006.4 |
| 20260508071521 | 1 | 277 | 3.2 | 6.4 | 0.00 | 0.23 | 0.00 | 91 | 1005.9 |
| 20260508070019 | 1 | 277 | 8.0 | 11.3 | 0.00 | 0.23 | 0.00 | 91 | 1005.3 |
| 20260508064516 | 2 | 207 | 3.2 | 6.4 | 0.00 | 0.23 | 0.00 | 90 | 1005.3 |
| 20260508063011 | 2 | 198 | 0.0 | 3.2 | 0.00 | 0.23 | 0.00 | 89 | 1005.5 |
| 20260508061510 | 2 | 198 | 0.0 | 0.0 | 0.00 | 0.23 | 0.00 | 89 | 1006.1 |
| 20260508060008 | 3 | 198 | 4.8 | 9.7 | 0.00 | 0.23 | 0.23 | 88 | 1006.4 |
| 20260508054507 | 3 | 85 | 0.0 | 11.3 | 0.00 | 0.23 | 0.23 | 87 | 1006.5 |
| 20260508053004 | 3 | 188 | 0.0 | 4.8 | 0.03 | 0.23 | 0.23 | 88 | 1006.5 |
| 20260508051504 | 3 | 190 | 0.0 | 3.2 | 0.03 | 0.23 | 0.23 | 87 | 1006.6 |
| 20260508050004 | 3 | 198 | 9.7 | 16.1 | 0.03 | 0.23 | 0.23 | 85 | 1006.6 |
| 20260508044503 | 3 | 215 | 11.3 | 27.4 | 0.03 | 0.23 | 0.23 | 83 | 1006.6 |
| 20260508043002 | 3 | 214 | 12.9 | 25.7 | 0.00 | 0.20 | 0.20 | 84 | 1006.3 |
| 20260508041502 | 3 | 287 | 4.8 | 8.0 | 0.00 | 0.20 | 0.20 | 88 | 1006.4 |
| 20260508040001 | 3 | 247 | 8.0 | 12.9 | 0.00 | 0.20 | 0.20 | 86 | 1006.2 |
| 20260508034501 | 3 | 257 | 3.2 | 11.3 | 0.00 | 0.20 | 0.20 | 82 | 1006.1 |
| 20260508033100 | 4 | 238 | 4.8 | 14.5 | 0.00 | 0.20 | 0.20 | 82 | 1006.3 |
| 20260508031601 | 4 | 242 | 12.9 | 17.7 | 0.00 | 0.20 | 0.20 | 80 | 1006.6 |
| 20260508024607 | 2 | 200 | 1.6 | 4.8 | 0.05 | 0.20 | 0.20 | 89 | 1005.8 |
| 20260508023057 | 3 | 193 | 6.4 | 9.7 | 0.05 | 0.20 | 0.20 | 87 | 1005.3 |
| 20260508021558 | 3 | 22 | 1.6 | 11.3 | 0.05 | 0.20 | 0.20 | 84 | 1004.8 |
| 20260508020057 | 5 | 232 | 11.3 | 24.1 | 0.03 | 0.18 | 0.18 | 83 | 1005.7 |
| 20260508014557 | 4 | 209 | 6.4 | 14.5 | 0.03 | 0.15 | 0.15 | 86 | 1005.8 |
| 20260508013055 | 4 | 173 | 6.4 | 11.3 | 0.13 | 0.15 | 0.15 | 87 | 1005.5 |
| 20260508011601 | 4 | 111 | 3.2 | 9.7 | 0.13 | 0.15 | 0.15 | 89 | 1005.4 |
| 20260508010055 | 4 | 184 | 3.2 | 9.7 | 0.13 | 0.15 | 0.15 | 87 | 1005.3 |
| 20260508004557 | 4 | 255 | 14.5 | 37.0 | 0.13 | 0.13 | 0.13 | 84 | 1005.3 |
| 20260508003102 | 6 | 181 | 0.0 | 3.2 | 0.03 | 0.03 | 0.03 | 81 | 1005.4 |
| 20260508001552 | 5 | 250 | 3.2 | 16.1 | 0.03 | 0.03 | 0.03 | 80 | 1004.9 |
| 20260508000050 | 5 | 225 | 6.4 | 19.3 | 0.03 | 0.03 | 0.03 | 81 | 1005.6 |
| 20260507234551 | 6 | 288 | 24.1 | 57.9 | 0.00 | 0.00 | 0.00 | 75 | 1006.1 |
| 20260507233059 | 11 | 117 | 3.2 | 12.9 | 0.00 | 0.00 | 0.00 | 53 | 1004.9 |
| 20260507231546 | 9 | 184 | 3.2 | 14.5 | 0.00 | 0.00 | 0.00 | 57 | 1004.8 |
| 20260507230044 | 8 | 223 | 4.8 | 32.2 | 0.00 | 0.00 | 0.00 | 63 | 1005.6 |
| 20260507224554 | 8 | 234 | 12.9 | 25.7 | 0.00 | 0.00 | 0.00 | 58 | 1005.8 |
| 20260507223043 | 8 | 218 | 8.0 | 30.6 | 0.00 | 0.00 | 0.00 | 63 | 1005.2 |
| 20260507221542 | 6 | 257 | 19.3 | 29.0 | 0.00 | 0.00 | 0.00 | 72 | 1005.4 |
| 20260507220040 | 6 | 265 | 30.6 | 70.8 | 0.00 | 0.00 | 0.00 | 74 | 1006.0 |
| 20260507214540 | 8 | 244 | 17.7 | 40.2 | 0.00 | 0.00 | 0.00 | 66 | 1005.8 |
| 20260507213040 | 7 | 268 | 27.4 | 51.5 | 0.00 | 0.00 | 0.00 | 71 | 1005.9 |
| 20260507211537 | 8 | 279 | 24.1 | 48.3 | 0.00 | 0.00 | 0.00 | 58 | 1006.0 |
| 20260507210045 | 10 | 257 | 43.5 | 75.6 | 0.00 | 0.00 | 0.00 | 48 | 1006.3 |
| 20260507204533 | 10 | 261 | 25.7 | 53.1 | 0.00 | 0.00 | 0.00 | 49 | 1006.1 |
| 20260507203034 | 8 | 239 | 35.4 | 51.5 | 0.00 | 0.00 | 0.00 | 60 | 1006.6 |
| 20260507201530 | 10 | 276 | 24.1 | 38.6 | 0.00 | 0.00 | 0.00 | 51 | 1006.5 |
| 20260507200028 | 7 | 232 | 24.1 | 48.3 | 0.00 | 0.03 | 0.00 | 60 | 1007.2 |
| 20260507194545 | 10 | 238 | 22.5 | 40.2 | 0.00 | 0.03 | 0.00 | 48 | 1007.0 |
| 20260507193028 | 9 | 214 | 22.5 | 35.4 | 0.00 | 0.03 | 0.00 | 48 | 1007.3 |
| 20260507191531 | 9 | 259 | 19.3 | 40.2 | 0.00 | 0.03 | 0.00 | 50 | 1007.7 |
| 20260507190021 | 9 | 231 | 16.1 | 43.5 | 0.00 | 0.38 | 0.00 | 53 | 1008.0 |
| 20260507184517 | 8 | 262 | 22.5 | 46.7 | 0.00 | 0.38 | 0.00 | 52 | 1008.2 |
| 20260507183029 | 8 | 287 | 24.1 | 46.7 | 0.00 | 0.38 | 0.00 | 52 | 1008.2 |
| 20260507181513 | 7 | 284 | 30.6 | 51.5 | 0.00 | 0.38 | 0.00 | 54 | 1008.5 |
| 20260507180015 | 7 | 355 | 9.7 | 35.4 | 0.00 | 0.64 | 0.00 | 54 | 1009.2 |
| 20260507174514 | 7 | 252 | 25.7 | 46.7 | 0.00 | 0.64 | 0.00 | 54 | 1008.9 |
| 20260507173010 | 7 | 235 | 27.4 | 45.1 | 0.00 | 0.64 | 0.00 | 57 | 1008.8 |
| 20260507171510 | 7 | 255 | 16.1 | 40.2 | 0.00 | 0.64 | 0.00 | 56 | 1008.9 |
| 20260507170007 | 7 | 219 | 22.5 | 59.5 | 0.00 | 0.66 | 0.00 | 56 | 1008.9 |
| 20260507164505 | 6 | 317 | 29.0 | 59.5 | 0.00 | 0.66 | 0.00 | 56 | 1008.6 |
| 20260507163003 | 6 | 242 | 24.1 | 45.1 | 0.00 | 0.66 | 0.00 | 56 | 1008.6 |
| 20260507161500 | 6 | 290 | 24.1 | 46.7 | 0.00 | 0.66 | 0.00 | 58 | 1008.8 |
| 20260507160059 | 5 | 304 | 25.7 | 56.3 | 0.00 | 0.66 | 0.00 | 57 | 1009.1 |
| 20260507154557 | 5 | 269 | 25.7 | 51.5 | 0.00 | 0.66 | 0.00 | 60 | 1009.6 |
| 20260507153059 | 5 | 248 | 24.1 | 49.9 | 0.00 | 0.66 | 0.00 | 60 | 1009.7 |
| 20260507151556 | 5 | 201 | 8.0 | 35.4 | 0.00 | 0.66 | 0.00 | 63 | 1010.3 |
| 20260507150055 | 2 | 161 | 6.4 | 35.4 | 0.00 | 0.66 | 0.00 | 73 | 1010.8 |
| 20260507144548 | 2 | 135 | 3.2 | 14.5 | 0.00 | 0.66 | 0.00 | 67 | 1011.2 |
| 20260507143046 | 2 | 231 | 6.4 | 20.9 | 0.00 | 0.66 | 0.00 | 67 | 1011.3 |
| 20260507141552 | 2 | 172 | 4.8 | 17.7 | 0.00 | 0.66 | 0.00 | 67 | 1011.2 |
| 20260507140042 | 2 | 197 | 4.8 | 22.5 | 0.00 | 0.66 | 0.00 | 66 | 1011.0 |
| 20260507134539 | 2 | 177 | 6.4 | 17.7 | 0.00 | 0.66 | 0.00 | 67 | 1010.9 |
| 20260507133037 | 1 | 182 | 4.8 | 19.3 | 0.00 | 0.66 | 0.00 | 67 | 1011.0 |
| 20260507131538 | 1 | 169 | 6.4 | 17.7 | 0.00 | 0.66 | 0.00 | 67 | 1010.7 |
| 20260507130032 | 0 | 136 | 6.4 | 12.9 | 0.00 | 0.66 | 0.00 | 70 | 1010.2 |
| 20260507124530 | 0 | 174 | 16.1 | 32.2 | 0.00 | 0.66 | 0.00 | 68 | 1010.1 |
| 20260507123029 | 0 | 209 | 19.3 | 33.8 | 0.00 | 0.66 | 0.00 | 69 | 1010.1 |
| 20260507121522 | 0 | 200 | 11.3 | 30.6 | 0.00 | 0.66 | 0.00 | 70 | 1010.5 |
| 20260507120036 | 0 | 212 | 12.9 | 38.6 | 0.00 | 0.66 | 0.00 | 68 | 1011.1 |